Theta_e
338 327 327 327 323 322 320 319 320 320 320 319 318 319 319 319 319 318 317 316 316 314 313 312 312 311 311 311 311 310 310 310 310 311 314 323 334 342 343 343 343 346 339
328 327 327 327 324 323 321 319 320 321 320 319 318 318 318 318 318 317 316 316 315 315 314 314 313 312 311 310 310 309 309 309 309 309 311 314 322 328 342 343 342 345 343
327 327 327 327 327 323 322 320 319 320 320 320 319 318 317 317 317 317 317 316 316 316 316 316 316 316 316 315 314 311 310 309 309 309 309 314 336 334 330 342 342 342 344
327 327 327 326 327 323 322 321 320 319 319 319 319 318 318 317 317 317 317 317 317 317 317 317 317 318 318 318 317 316 315 312 311 312 327 322 332 329 323 335 340 340 340
327 327 327 326 326 326 321 321 320 319 319 319 318 318 318 318 318 318 318 317 318 318 317 318 318 319 319 320 320 322 323 322 317 331 330 328 324 328 325 320 339 338 339
327 327 327 326 325 325 324 321 321 320 319 319 318 318 318 318 318 318 318 318 318 318 318 318 318 319 319 320 321 323 325 325 335 339 339 334 332 325 324 321 323 338 338
328 328 327 327 325 324 325 322 320 320 320 319 319 319 318 318 318 319 319 319 319 319 319 319 319 319 319 320 321 321 322 323 326 338 337 337 336 333 330 319 314 330 337
328 328 328 327 326 323 323 323 321 320 320 319 319 319 319 318 318 319 319 320 320 320 320 319 319 319 319 320 320 321 322 323 323 333 337 337 337 336 335 321 309 316 331
342 333 329 328 327 324 322 322 322 320 319 319 319 318 318 318 318 319 319 320 320 320 320 320 320 320 320 320 320 321 321 322 323 325 338 338 337 336 335 329 313 309 324
341 343 335 331 329 327 323 321 321 321 319 318 318 318 318 318 318 318 319 319 320 321 321 321 321 321 321 321 321 321 321 321 322 329 334 335 337 336 335 334 323 309 315
340 341 343 338 332 329 326 323 321 321 320 319 318 318 318 318 318 318 318 319 320 320 321 321 321 321 321 321 322 325 327 325 328 335 335 335 335 335 335 334 328 314 318
340 342 344 343 342 335 330 329 325 321 321 321 321 319 318 317 317 317 318 318 319 320 320 321 322 322 322 322 322 331 334 332 336 337 335 334 334 333 333 332 329 320 321
339 341 343 343 342 339 339 338 337 336 333 329 323 321 319 317 316 316 317 318 318 319 320 321 322 322 322 323 328 335 336 336 335 333 333 333 332 331 329 320 327 325 322
338 338 341 343 343 342 342 342 337 337 334 332 330 329 323 319 317 316 317 318 320 320 319 320 321 322 323 325 335 339 337 335 334 334 333 334 333 333 332 328 320 326 326
334 334 336 336 336 337 339 346 343 337 331 328 330 330 331 331 327 319 318 323 326 328 326 321 321 322 325 330 334 338 334 335 335 334 334 334 334 334 332 330 323 323 326
334 334 334 334 338 335 335 333 342 342 341 336 335 334 332 336 337 334 329 329 335 336 335 332 325 323 330 336 341 338 336 337 336 336 335 335 334 334 332 331 327 323 321
332 333 333 333 334 336 335 334 331 334 338 340 344 343 338 338 341 341 336 333 333 339 337 336 334 338 340 341 337 340 338 337 336 336 335 335 334 334 330 330 330 327 327
331 331 331 332 333 334 333 332 330 328 329 334 338 344 345 342 342 342 340 337 336 334 339 336 337 335 336 339 340 337 338 338 337 336 334 332 334 334 334 330 329 331 328
332 331 332 333 333 335 336 334 331 329 328 330 336 341 343 344 343 344 342 339 340 337 335 337 336 335 338 338 340 336 338 337 335 334 336 335 334 333 330 330 331 330 329
332 333 332 332 333 332 334 334 335 332 328 326 326 332 343 343 343 344 343 341 340 339 337 337 337 335 334 338 335 337 337 336 335 334 335 332 331 330 330 332 333 332 332
331 331 330 329 328 330 329 330 336 329 324 327 330 330 336 343 343 344 344 343 342 340 338 336 336 334 335 336 337 337 337 334 335 333 334 332 331 330 331 331 331 330 332
329 328 327 327 326 327 326 323 328 332 331 332 336 338 343 343 344 344 344 343 343 340 339 337 336 334 335 335 335 334 335 336 334 334 333 333 330 329 330 332 329 330 329
328 327 327 327 326 326 325 326 330 330 329 336 342 342 345 344 344 344 345 344 342 341 340 337 336 335 334 335 336 336 336 333 331 332 332 332 331 329 330 329 329 331 327
328 328 327 328 328 326 326 327 333 334 326 325 344 345 345 344 344 344 344 342 343 343 340 338 337 336 334 335 337 335 334 333 333 332 332 332 331 328 328 328 330 330 330
325 324 324 324 324 325 329 331 330 335 337 337 339 346 346 346 345 345 343 341 343 343 339 340 337 335 332 337 336 335 333 330 329 329 330 330 329 327 327 328 327 329 329
325 327 327 326 327 327 329 329 333 330 334 341 345 346 347 346 344 342 342 341 341 340 339 339 337 334 337 337 335 333 333 331 330 330 330 330 328 326 328 328 328 329 330
Wind_Speed
16 19 19 17 16 16 19 21 21 21 20 20 19 17 16 14 10 10 9 7 5 5 4 2 1 1 2 3 3 4 4 4 5 5 4 4 3 3 1 1 5 1 2
26 23 20 18 15 15 17 19 20 21 20 18 18 17 15 13 10 9 8 7 6 6 6 5 5 3 2 2 2 3 3 3 3 3 3 3 2 4 3 2 5 3 3
27 25 21 20 16 16 17 17 19 19 18 17 16 15 14 13 10 9 8 7 6 6 6 6 5 6 5 4 3 3 3 2 2 2 4 3 3 8 7 4 4 4 5
25 26 23 20 17 17 17 17 17 17 17 16 15 14 13 12 10 9 7 5 5 5 4 4 5 5 5 5 4 4 5 5 5 8 9 8 5 9 9 7 4 4 5
23 23 21 20 19 17 17 17 16 16 16 16 16 15 13 11 10 8 7 6 5 4 3 2 3 4 4 5 4 4 5 7 8 9 10 2 6 9 9 8 7 5 4
23 25 21 20 19 18 16 17 17 17 17 17 16 15 14 13 11 10 9 7 6 5 4 2 1 1 3 4 4 4 4 5 5 5 2 7 7 13 9 9 11 8 7
24 24 22 19 19 20 18 18 18 17 18 17 17 16 15 14 13 12 10 9 9 7 6 4 3 1 1 3 4 5 5 3 3 3 3 7 10 11 12 13 12 12 10
24 23 22 19 19 20 20 19 19 19 19 19 18 18 17 16 15 14 13 12 11 10 9 8 6 5 3 3 3 5 5 4 3 6 0 12 14 14 16 13 11 13 12
18 20 21 19 19 21 21 20 20 20 20 19 20 19 19 19 19 18 17 16 15 13 13 11 9 7 6 4 3 5 5 5 6 6 8 14 17 15 15 15 10 12 13
22 16 18 20 19 22 24 23 22 22 21 21 21 21 21 22 22 21 21 20 18 17 16 14 12 9 8 6 5 6 7 7 8 4 8 10 16 17 18 17 13 11 14
26 23 16 16 16 18 23 24 24 24 24 23 24 25 25 26 27 26 25 23 21 20 20 17 13 13 12 8 7 7 7 10 5 5 6 10 16 17 18 19 15 11 12
25 26 23 20 18 14 18 20 22 26 26 26 26 28 30 30 31 29 28 27 25 25 23 19 17 18 13 11 11 10 4 2 2 3 14 18 17 20 21 21 17 13 12
22 23 26 23 19 16 12 18 18 20 21 25 29 31 32 33 33 32 31 30 30 30 29 24 24 21 16 15 11 11 6 3 2 8 16 18 19 18 19 18 17 15 15
12 14 21 23 17 14 15 21 21 23 20 19 20 25 32 35 37 36 35 34 33 33 33 29 28 22 19 16 11 11 11 11 15 9 16 17 17 17 19 17 17 18 17
10 9 6 10 14 18 19 25 27 25 20 18 19 20 23 28 32 37 36 34 35 31 31 32 30 24 22 16 14 19 20 16 13 15 16 16 18 16 16 16 15 19 18
16 14 15 9 14 22 23 23 27 26 28 22 23 24 26 28 29 29 31 35 31 32 28 25 30 27 20 17 18 17 17 17 15 17 19 20 20 18 16 16 14 15 17
21 17 20 20 17 20 25 24 24 26 27 28 27 29 28 31 32 30 29 32 34 28 25 26 18 23 20 21 20 20 20 20 22 24 22 21 21 19 18 16 16 15 15
26 27 29 25 20 22 27 27 26 28 26 27 26 29 32 33 35 34 31 33 33 34 26 28 25 27 32 29 26 18 22 26 26 25 21 21 20 17 16 17 19 15 17
28 29 28 26 25 18 18 21 24 26 26 28 26 28 29 33 36 37 34 33 30 31 34 29 32 30 28 26 25 19 26 25 28 20 17 17 20 20 22 22 22 20 15
29 26 25 27 26 28 20 25 27 29 32 32 32 30 26 31 36 36 34 32 31 30 34 31 32 33 31 27 23 22 25 25 19 15 17 17 21 25 25 25 23 19 15
27 24 29 26 27 29 28 30 34 38 38 36 33 32 30 30 34 36 35 30 30 33 35 35 30 29 30 28 21 22 22 24 19 17 18 22 25 24 21 28 23 22 13
22 22 27 31 33 33 34 36 34 27 24 24 25 27 25 29 33 34 34 26 33 35 30 33 31 31 31 26 27 22 22 15 19 22 22 18 18 22 26 30 21 20 16
27 29 30 32 35 34 36 34 30 28 31 24 23 27 27 29 32 33 32 26 29 29 30 33 32 32 30 25 24 18 8 9 7 13 15 17 16 22 26 23 19 17 20
31 25 26 29 31 35 36 35 34 33 31 32 21 26 28 28 33 34 30 25 26 26 30 28 32 33 31 24 22 24 19 13 4 5 10 12 15 21 21 17 20 17 20
36 38 37 40 43 41 37 33 33 30 25 20 22 24 26 26 29 30 27 23 28 25 26 26 31 33 27 25 20 13 13 9 11 14 11 11 16 15 16 14 17 17 20
39 36 33 38 37 38 36 36 32 31 31 21 23 27 29 29 26 24 27 24 27 22 25 23 23 24 25 21 16 12 14 10 9 13 12 14 16 13 9 11 14 16 14
Wind_Direction
155 158 163 159 153 146 141 142 137 134 131 130 127 129 129 126 129 121 122 121 118 107 97 90 99 207 247 268 271 273 267 272 277 280 280 281 316 342 337 166 134 178 121
154 157 162 165 161 155 149 149 148 144 141 139 137 138 138 138 139 131 124 119 114 102 91 83 74 61 35 343 333 310 298 289 287 292 290 292 314 314 319 240 196 200 199
152 153 165 172 168 166 161 159 159 157 153 152 153 149 150 152 152 147 139 129 116 98 87 82 81 81 69 53 25 5 359 358 352 29 42 20 321 328 294 265 243 227 217
149 152 165 175 177 175 171 170 168 168 167 167 166 162 162 162 163 160 156 144 126 106 90 76 64 63 69 64 46 29 21 29 43 76 69 47 216 288 306 259 257 250 240
154 156 170 177 185 184 180 179 181 179 181 181 178 177 172 173 177 177 174 174 160 135 125 99 66 48 38 40 41 34 34 48 73 90 59 272 211 274 277 261 239 229 238
156 161 172 182 192 192 189 189 193 191 193 195 192 189 186 187 190 193 195 194 195 184 180 170 116 36 20 9 5 359 16 58 101 95 91 305 282 254 271 278 245 248 232
160 167 172 186 197 200 198 199 200 203 203 205 205 203 201 201 204 206 208 210 209 206 205 207 208 235 299 332 335 337 335 350 202 79 27 273 294 296 294 272 246 237 242
168 173 173 186 200 207 206 206 207 209 212 212 213 213 213 214 215 219 218 219 220 218 219 215 215 222 238 265 288 299 306 305 253 164 122 276 281 287 295 291 250 229 235
171 185 180 192 201 210 213 212 213 215 217 221 223 223 222 223 224 223 226 225 225 225 227 224 221 225 236 254 281 292 300 299 283 258 202 292 272 280 293 302 266 235 230
168 187 202 201 208 211 215 217 218 220 223 226 229 231 231 232 232 229 229 229 229 231 231 229 228 236 241 254 284 300 303 304 304 2 214 285 278 282 289 295 281 240 228
171 179 214 223 211 216 221 223 225 226 227 229 232 235 234 235 235 234 233 233 233 234 234 232 234 237 235 249 269 294 315 311 303 355 288 260 273 280 288 289 278 243 232
175 175 186 225 237 229 225 232 225 233 235 237 238 240 237 236 239 236 239 237 235 236 236 233 233 237 241 254 255 268 305 322 116 284 258 268 272 280 288 285 268 241 233
199 190 186 216 232 247 231 233 248 241 243 246 244 246 246 242 239 240 240 239 236 235 234 230 232 236 243 253 246 266 292 266 261 246 253 265 274 282 295 284 255 239 231
192 243 202 210 213 234 229 218 243 249 249 242 245 247 248 248 244 239 240 244 242 238 237 234 234 237 242 250 209 244 259 249 234 252 260 266 272 281 297 295 255 239 231
202 233 140 211 231 246 221 212 227 243 247 256 262 261 253 252 250 245 239 240 249 243 245 238 236 235 248 250 230 228 229 233 242 241 255 263 276 281 291 304 270 244 233
256 256 251 246 238 254 251 227 225 226 232 249 261 267 273 268 260 249 245 233 225 247 250 242 238 233 240 243 231 241 245 240 245 246 243 254 267 277 286 295 277 257 239
255 261 264 258 252 249 253 252 230 228 235 229 243 257 266 268 263 257 246 234 226 234 244 237 237 224 241 233 242 240 259 235 235 239 248 252 259 268 279 280 277 260 252
250 250 251 251 244 247 253 257 251 234 235 243 247 240 246 258 263 250 243 235 223 220 235 223 231 213 224 225 232 233 239 229 251 260 254 248 257 259 269 266 265 261 253
239 245 235 235 228 239 243 247 250 248 247 248 247 250 241 248 256 252 241 229 229 224 221 229 221 226 226 232 224 226 238 242 263 261 253 255 249 256 273 271 262 257 247
245 220 229 237 236 235 239 250 253 255 255 257 259 249 242 241 250 250 240 228 222 228 221 223 226 230 229 234 240 232 246 256 260 241 240 260 260 260 267 251 249 244 242
230 231 245 249 250 246 243 245 237 247 256 258 260 262 241 238 241 245 240 230 224 224 221 223 225 231 227 223 230 233 245 264 250 244 237 252 260 256 251 259 247 249 236
222 233 245 246 255 249 259 253 248 250 256 260 251 256 246 230 237 237 241 235 222 220 223 217 224 224 225 226 227 243 259 262 252 248 243 249 254 253 251 245 248 236 229
242 248 251 250 254 255 261 252 253 248 237 230 233 238 238 230 230 236 240 231 218 224 222 222 221 221 216 221 222 223 247 243 244 229 238 243 268 268 259 260 234 230 231
252 250 253 255 254 259 257 250 240 242 244 235 220 231 236 232 227 232 234 222 207 222 213 223 221 219 218 224 228 234 239 251 254 238 227 240 261 271 268 259 234 230 217
260 264 257 253 253 249 244 245 246 227 231 232 221 222 233 234 225 224 221 209 203 214 213 222 222 228 218 225 227 233 243 258 254 258 270 269 276 282 273 251 241 224 219
250 246 244 250 248 241 236 240 237 225 225 221 213 216 222 228 226 213 207 206 207 208 203 219 230 209 210 219 223 245 223 230 230 242 259 264 280 287 255 232 220 213 210